This is the latest recevied weather packets stored in our database for station/object SP8EBC-11. If no packets are shown the sender has not sent any weather packets the latest 1 day(s).
| Time | Temp. | Humidity | Pressure | Rain* | Wind** | Luminosity | Snow |
|---|---|---|---|---|---|---|---|
| 1777994519 | 20° C | 62% | 990.6 hPa | - | 4.02 m/s, 43° | - | - |
| 1777994399 | 20° C | 62% | 990.6 hPa | - | 4.02 m/s, 47° | - | - |
| 1777994279 | 20° C | 62% | 990.7 hPa | - | 3.58 m/s, 46° | - | - |
| 1777994158 | 20° C | 62% | 990.6 hPa | - | 3.58 m/s, 47° | - | - |
| 1777994039 | 20° C | 62% | 990.6 hPa | - | 3.58 m/s, 47° | - | - |
| 1777993919 | 20° C | 62% | 990.6 hPa | - | 3.58 m/s, 40° | - | - |
| 1777993798 | 20° C | 62% | 990.6 hPa | - | 3.58 m/s, 40° | - | - |
| 1777993678 | 20° C | 62% | 990.7 hPa | - | 3.13 m/s, 47° | - | - |
| 1777993557 | 20° C | 62% | 990.7 hPa | - | 3.13 m/s, 56° | - | - |
| 1777993438 | 20° C | 62% | 990.7 hPa | - | 3.58 m/s, 61° | - | - |
| 1777993318 | 20° C | 62% | 990.8 hPa | - | 3.58 m/s, 57° | - | - |
| 1777993198 | 20° C | 62% | 990.8 hPa | - | 3.58 m/s, 57° | - | - |
| 1777993078 | 20° C | 62% | 990.8 hPa | - | 3.58 m/s, 62° | - | - |
| 1777992957 | 20° C | 62% | 990.8 hPa | - | 3.58 m/s, 58° | - | - |
| 1777992838 | 20° C | 62% | 990.9 hPa | - | 4.02 m/s, 55° | - | - |
| 1777992718 | 20° C | 62% | 990.9 hPa | - | 3.58 m/s, 40° | - | - |
| 1777992598 | 20° C | 62% | 991 hPa | - | 3.58 m/s, 44° | - | - |
| 1777992478 | 20° C | 62% | 991 hPa | - | 3.13 m/s, 44° | - | - |
| 1777992357 | 20° C | 62% | 991.1 hPa | - | 4.02 m/s, 44° | - | - |
| 1777992238 | 20° C | 62% | 991 hPa | - | 3.58 m/s, 43° | - | - |
| 1777992117 | 20° C | 62% | 991 hPa | - | 3.58 m/s, 52° | - | - |
| 1777991992 | 20° C | 62% | 991 hPa | - | 4.02 m/s, 48° | - | - |
| 1777991872 | 20° C | 62% | 991 hPa | - | 4.02 m/s, 48° | - | - |
| 1777991752 | 20° C | 62% | 991 hPa | - | 3.58 m/s, 53° | - | - |
| 1777991632 | 20° C | 62% | 991.1 hPa | - | 3.58 m/s, 54° | - | - |
* Rain since midnight (hover to see other rain measurements)
** Current wind speed in m/s (hover to see current wind gust speed)